Date String (YYYY-MM-DD hh:mm:ss) UTC,Instrument flags,absolute air pressure of the measurement (hPa),sample flow rate (lpm),inlet stack bypass flow (lpm),air temperature of the measurement (°C),ambient temperature measured by the external sensor (°C),aerosol sample conditioner tube jacket temperature (°C),OPC LED temperature (°C),internal box temperature (°C),relative humidity of the measurement (%),span deviation,mass concentration of particles derived from Lorenz-Mie calculation of OPC scattering (μg/m³),mass concentration of particles derived from Lorenz-Mie calculation of OPC scattering (μg/m³),mass concentration of particles derived from Lorenz-Mie calculation of OPC scattering (μg/m³)
DateTimeUTC,F1_M11,P_M11,Q1_M11,Q2_M11,T1_M11,T2_M11,T3_M11,T4_M11,T5_M11,U1_M11,ZSPAN_M11,X0_M11,X2_M11,X1_M11
2023-07-23 01:00:00,SystemResetWarning,0834.0,5.00,000.00,028.8,026.4,000.0,037.1,030.3,30.3,0000.0,0009.31,0006.10,0005.63
2023-07-23 01:01:00,SystemResetWarning,0834.0,5.01,000.00,028.8,026.8,000.0,037.1,030.4,30.9,0000.0,0009.32,0006.11,0005.63
2023-07-23 01:02:00,SystemResetWarning,0834.0,5.00,000.00,028.8,027.2,000.0,037.1,030.5,31.3,0000.0,0009.01,0006.08,0005.64
2023-07-23 01:03:00,SystemResetWarning,0834.1,4.99,000.00,028.9,027.5,000.0,037.2,030.6,30.9,0000.0,0009.11,0006.14,0005.65
2023-07-23 01:04:00,SystemResetWarning,0834.1,5.00,000.00,028.9,027.6,000.0,037.2,030.7,30.4,0000.0,0009.12,0006.15,0005.66
2023-07-23 01:05:00,SystemResetWarning,0834.1,5.00,000.00,029.0,026.5,000.0,037.1,030.5,30.2,0000.0,0009.12,0006.18,0005.69
2023-07-23 01:06:00,SystemResetWarning,0834.1,5.00,000.00,028.9,025.0,000.0,037.0,030.2,31.4,0000.0,0009.00,0006.16,0005.71
2023-07-23 01:07:00,SystemResetWarning,0834.1,5.01,000.00,028.8,024.6,000.0,036.9,030.0,30.7,0000.0,0008.97,0006.16,0005.72
2023-07-23 01:08:00,SystemResetWarning,0834.1,5.01,000.00,028.7,024.9,000.0,037.0,029.9,30.8,0000.0,0009.04,0006.21,0005.75
2023-07-23 01:09:00,SystemResetWarning,0834.1,5.00,000.00,028.6,025.4,000.0,037.0,030.0,30.5,0000.0,0009.49,0006.23,0005.76
2023-07-23 01:10:00,SystemResetWarning,0834.1,5.00,000.00,028.7,025.9,000.0,037.0,030.1,30.5,0000.0,0009.63,0006.26,0005.78
2023-07-23 01:11:00,SystemResetWarning,0834.1,5.00,000.00,028.7,026.3,000.0,037.0,030.3,30.7,0000.0,0010.01,0006.26,0005.80
2023-07-23 01:12:00,SystemResetWarning,0834.2,5.00,000.00,028.7,026.7,000.0,037.1,030.4,30.8,0000.0,0010.85,0006.26,0005.82
2023-07-23 01:13:00,SystemResetWarning,0834.2,4.99,000.00,028.8,027.1,000.0,037.1,030.5,31.0,0000.0,0010.95,0006.29,0005.84
2023-07-23 01:14:00,SystemResetWarning,0834.2,5.00,000.00,028.8,027.4,000.0,037.1,030.5,31.2,0000.0,0011.03,0006.30,0005.86
2023-07-23 01:15:00,SystemResetWarning,0834.5,5.00,000.00,028.9,027.6,000.0,037.1,030.6,31.3,0000.0,0011.19,0006.30,0005.87
2023-07-23 01:16:00,SystemResetWarning,0834.6,5.00,000.00,028.9,026.8,000.0,037.1,030.5,31.0,0000.0,0011.16,0006.29,0005.88
2023-07-23 01:17:00,SystemResetWarning,0834.4,5.00,000.00,028.8,025.2,000.0,037.0,030.2,30.8,0000.0,0011.21,0006.32,0005.89
2023-07-23 01:18:00,SystemResetWarning,0834.4,5.00,000.00,028.8,024.6,000.0,036.9,030.1,31.3,0000.0,0011.30,0006.33,0005.89
2023-07-23 01:19:00,SystemResetWarning,0834.3,5.01,000.00,028.7,024.8,000.0,036.9,029.9,31.8,0000.0,0011.32,0006.33,0005.89
2023-07-23 01:20:00,SystemResetWarning,0834.6,5.00,000.00,028.6,025.2,000.0,037.0,029.9,31.8,0000.0,0011.12,0006.32,0005.88
2023-07-23 01:21:00,SystemResetWarning,0834.7,4.99,000.00,028.6,025.7,000.0,037.0,030.1,32.1,0000.0,0010.73,0006.33,0005.88
2023-07-23 01:22:00,SystemResetWarning,0834.5,5.00,000.00,028.6,026.2,000.0,037.0,030.2,32.0,0000.0,0010.60,0006.37,0005.89
2023-07-23 01:23:00,SystemResetWarning,0834.4,5.00,000.00,028.7,026.6,000.0,037.0,030.3,31.6,0000.0,0009.79,0006.40,0005.90
2023-07-23 01:24:00,SystemResetWarning,0834.4,5.01,000.00,028.7,027.0,000.0,037.0,030.4,31.6,0000.0,0009.62,0006.43,0005.90
2023-07-23 01:25:00,SystemResetWarning,0834.5,5.00,000.00,028.8,027.3,000.0,037.1,030.5,31.6,0000.0,0010.30,0006.48,0005.92
2023-07-23 01:26:00,SystemResetWarning,0834.5,5.00,000.00,028.8,027.5,000.0,037.1,030.6,31.3,0000.0,0010.39,0006.50,0005.92
2023-07-23 01:27:00,SystemResetWarning,0834.5,5.00,000.00,028.9,027.7,000.0,037.1,030.7,31.3,0000.0,0010.45,0006.53,0005.93
2023-07-23 01:28:00,SystemResetWarning,0834.3,5.00,000.00,028.9,027.8,000.0,037.1,030.7,30.8,0000.0,0010.46,0006.54,0005.95
2023-07-23 01:29:00,SystemResetWarning,0834.4,4.99,000.00,028.9,026.6,000.0,037.1,030.5,30.8,0000.0,0010.54,0006.59,0005.97
2023-07-23 01:30:00,SystemResetWarning,0834.2,5.00,000.00,028.9,025.0,000.0,037.0,030.3,30.7,0000.0,0010.56,0006.61,0005.99
2023-07-23 01:31:00,SystemResetWarning,0834.2,5.00,000.00,028.8,024.6,000.0,036.9,030.1,30.5,0000.0,0010.89,0006.62,0006.02
2023-07-23 01:32:00,SystemResetWarning,0834.2,5.01,000.00,028.7,024.9,000.0,036.9,029.9,30.7,0000.0,0011.22,0006.61,0006.04
2023-07-23 01:33:00,SystemResetWarning,0834.2,5.01,000.00,028.6,025.3,000.0,037.0,030.0,30.5,0000.0,0011.16,0006.60,0006.06
2023-07-23 01:34:00,SystemResetWarning,0834.2,5.00,000.00,028.6,025.8,000.0,037.0,030.1,30.1,0000.0,0011.19,0006.63,0006.08
2023-07-23 01:35:00,SystemResetWarning,0834.1,5.00,000.00,028.6,026.3,000.0,037.0,030.2,29.2,0000.0,0011.33,0006.64,0006.09
2023-07-23 01:36:00,SystemResetWarning,0834.1,5.00,000.00,028.7,026.7,000.0,037.1,030.3,28.6,0000.0,0010.62,0006.62,0006.12
2023-07-23 01:37:00,SystemResetWarning,0834.2,5.00,000.00,028.7,027.0,000.0,037.1,030.4,28.4,0000.0,0010.44,0006.65,0006.14
2023-07-23 01:38:00,SystemResetWarning,0834.2,5.00,000.00,028.8,027.3,000.0,037.1,030.5,27.5,0000.0,0010.39,0006.65,0006.15
2023-07-23 01:39:00,SystemResetWarning,0834.1,5.00,000.00,028.8,027.6,000.0,037.1,030.6,27.0,0000.0,0010.43,0006.67,0006.16
2023-07-23 01:40:00,SystemResetWarning,0834.1,5.00,000.00,028.9,027.8,000.0,037.2,030.7,25.4,0000.0,0010.27,0006.64,0006.17
2023-07-23 01:41:00,SystemResetWarning,0834.1,4.99,000.00,028.9,027.7,000.0,037.2,030.7,24.9,0000.0,0010.29,0006.65,0006.17
2023-07-23 01:42:00,SystemResetWarning,0834.1,4.99,000.00,028.9,026.2,000.0,037.1,030.5,25.6,0000.0,0010.09,0006.67,0006.17
2023-07-23 01:43:00,SystemResetWarning,0834.1,5.00,000.00,028.9,024.9,000.0,037.0,030.3,25.9,0000.0,0009.81,0006.68,0006.17
2023-07-23 01:44:00,SystemResetWarning,0834.1,5.00,000.00,028.8,024.6,000.0,036.9,030.1,25.3,0000.0,0009.85,0006.69,0006.17
2023-07-23 01:45:00,SystemResetWarning,0834.1,5.01,000.00,028.7,025.0,000.0,037.0,030.0,25.4,0000.0,0009.83,0006.68,0006.17
2023-07-23 01:46:00,SystemResetWarning,0834.1,5.00,000.00,028.6,025.4,000.0,037.0,030.0,26.0,0000.0,0009.86,0006.70,0006.19
2023-07-23 01:47:00,SystemResetWarning,0834.1,5.00,000.00,028.7,025.9,000.0,037.0,030.2,26.2,0000.0,0009.84,0006.69,0006.19
2023-07-23 01:48:00,SystemResetWarning,0834.1,5.00,000.00,028.7,026.4,000.0,037.0,030.3,26.6,0000.0,0009.70,0006.66,0006.19
2023-07-23 01:49:00,SystemResetWarning,0834.1,5.01,000.00,028.7,026.8,000.0,037.1,030.4,27.3,0000.0,0009.69,0006.67,0006.20
2023-07-23 01:50:00,SystemResetWarning,0834.1,5.00,000.00,028.8,027.1,000.0,037.1,030.5,27.8,0000.0,0009.67,0006.65,0006.19
2023-07-23 01:51:00,SystemResetWarning,0834.1,4.99,000.00,028.8,027.4,000.0,037.1,030.5,28.5,0000.0,0009.78,0006.65,0006.20
2023-07-23 01:52:00,SystemResetWarning,0834.1,5.00,000.00,028.9,027.6,000.0,037.2,030.6,29.4,0000.0,0009.95,0006.63,0006.20
2023-07-23 01:53:00,SystemResetWarning,0834.1,5.00,000.00,028.9,027.8,000.0,037.2,030.7,30.7,0000.0,0009.88,0006.65,0006.21
2023-07-23 01:54:00,SystemResetWarning,0834.1,4.99,000.00,029.0,027.5,000.0,037.2,030.7,31.7,0000.0,0009.96,0006.65,0006.21
2023-07-23 01:55:00,SystemResetWarning,0834.1,5.01,000.00,028.9,025.8,000.0,037.1,030.4,31.7,0000.0,0009.78,0006.61,0006.21
2023-07-23 01:56:00,SystemResetWarning,0834.0,5.00,000.00,028.8,024.7,000.0,037.0,030.2,30.0,0000.0,0009.69,0006.57,0006.19
2023-07-23 01:57:00,SystemResetWarning,0834.1,5.02,000.00,028.7,024.6,000.0,036.9,030.0,30.0,0000.0,0009.49,0006.52,0006.16
2023-07-23 01:58:00,SystemResetWarning,0834.0,5.00,000.00,028.6,025.0,000.0,037.0,029.9,28.0,0000.0,0009.69,0006.51,0006.14
2023-07-23 01:59:00,SystemResetWarning,0834.0,5.00,000.00,028.6,025.5,000.0,037.0,030.0,27.7,0000.0,0010.08,0006.51,0006.12
